Location: Albany
(35.0000°S, 118.0000°E)
Time: 14:51:20
(UTC-04:00)

Amateur Radio Satellites - All Passes

Search period start: 02 September 2014 14:21
Search period end: 03 September 2014 14:21
Location: Albany, 35.0000°S, 118.0000°E

Satellite Date Start Highest point End Downlink Frequencies (MHz)
Time Altitude Azimuth
UOSAT-12 02 Sep 14:33:01 14:36:18 21° 291° (WNW) 14:39:36 437.025 FM, 437.400 FM
PCSat 02 Sep 14:44:07 14:48:41 29° 72° (ENE) 14:53:18 145.825 MHz
AO-Echo 02 Sep 14:49:12 14:52:08 16° 272° (W) 14:55:09 ?
Gurwin Techsat 1B 02 Sep 14:57:10 15:02:00 35° 278° (W) 15:06:55 435.225 FM
JAS-1B 02 Sep 15:08:54 15:12:51 19° 270° (W) 15:17:07 435.800 - 435.900 CW/SSB
RS-15 02 Sep 15:23:23 15:35:18 56° 126° (SE) 15:46:35 29.354 - 29.394 USB, Beacon 29.352 USB
AO-7 02 Sep 15:31:38 15:39:55 81° 109° (ESE) 15:48:20 29.400 - 29.500 MHz
ISS 02 Sep 15:32:12 15:35:29 42° 142° (SE) 15:38:43 145.800 FM
OPAL 02 Sep 15:38:49 15:41:54 16° 84° (E) 15:44:57 ?
Uosat F 02 Sep 15:39:58 15:45:01 82° 104° (ESE) 15:50:09 435.120 FM
JAS-2 02 Sep 15:46:03 15:50:11 17° 122° (ESE) 15:54:31 435.800 - 435.900 CW/SSB, 435.910 FM
TMSAT-1 02 Sep 15:48:45 15:51:55 16° 273° (W) 15:55:08 436.925 FM
Oscar 10/S400 02 Sep 15:57:10 01:30:53 47° 318° (NW) 01:53:49 145.825 - 145.975 CW/USB, Beacon 145.810 USB
Sapphire 02 Sep 15:57:15 16:02:38 65° 242° (WSW) 16:08:04 437.095 MHz 1200 baud AX-25 AFSK
Hamsat 02 Sep 16:26:54 16:29:54 19° 111° (ESE) 16:32:54 145.90 MHz
PCSat 02 Sep 16:27:05 16:31:57 33° 237° (WSW) 16:36:52 145.825 MHz
ISS 02 Sep 17:09:50 17:11:56 16° 307° (NW) 17:14:01 145.800 FM
OPAL 02 Sep 17:16:11 17:20:59 48° 250° (WSW) 17:25:46 ?
JAS-2 02 Sep 17:27:14 17:33:59 88° 284° (WNW) 17:41:38 435.800 - 435.900 CW/SSB, 435.910 FM
AO-7 02 Sep 17:28:15 17:33:26 18° 273° (W) 17:38:41 29.400 - 29.500 MHz
RS-15 02 Sep 17:36:35 17:47:14 40° 286° (WNW) 17:57:28 29.354 - 29.394 USB, Beacon 29.352 USB
Hamsat 02 Sep 18:01:54 18:05:38 30° 277° (W) 18:09:23 145.90 MHz
SO-67 02 Sep 18:21:40 18:25:04 54° 104° (ESE) 18:28:32 435.3500 MHz FM
STRAND 1 02 Sep 19:04:41 19:09:55 84° 256° (WSW) 19:15:03 ?
JAS-2 02 Sep 19:17:15 19:20:05 13° 266° (W) 19:23:03 435.800 - 435.900 CW/SSB, 435.910 FM
HO-68 02 Sep 19:34:26 19:40:58 39° 114° (ESE) 19:47:34 435.675 MHz FM
UKube-1 02 Sep 20:02:48 20:06:17 23° 111° (ESE) 20:09:48 145.840 MHz, 145.915 MHz
Oscar 11 02 Sep 20:06:36 20:09:11 16° 113° (ESE) 20:11:46 145.825 FM, Beacon 2401.500 USB
Saudisat 1A 02 Sep 20:28:02 20:31:59 33° 67° (ENE) 20:35:58 436.775 MHz
FUNcube-1 02 Sep 20:41:11 20:43:53 16° 113° (ESE) 20:46:33 145.950 - 145.970 MHz USB
KITSAT 1 02 Sep 20:52:09 20:58:11 24° 76° (ENE) 21:04:13 435.175 FM
HO-68 02 Sep 21:22:08 21:28:35 36° 278° (W) 21:35:08 435.675 MHz FM
UKube-1 02 Sep 21:38:39 21:42:20 26° 277° (W) 21:46:04 145.840 MHz, 145.915 MHz
Oscar 11 02 Sep 21:40:54 21:44:59 40° 278° (W) 21:49:08 145.825 FM, Beacon 2401.500 USB
MaSat-1 02 Sep 22:03:44 22:07:02 58° 292° (WNW) 22:10:52 437.345 MHz
Saudisat 1A 02 Sep 22:08:08 22:11:36 22° 231° (SW) 22:15:06 436.775 MHz
FUNcube-1 02 Sep 22:15:27 22:19:52 45° 279° (W) 22:24:16 145.950 - 145.970 MHz USB
KITSAT 1 02 Sep 22:44:52 22:52:51 65° 240° (WSW) 23:00:57 435.175 FM
PCSat 02 Sep 23:36:18 23:38:58 14° 132° (SE) 23:41:38 145.825 MHz
Oscar 16 03 Sep 00:19:13 00:19:24 10° 90° (E) 00:19:35 437.025 USB, Beacon 2401.1428
KITSAT 1 03 Sep 00:45:39 00:49:57 15° 218° (SW) 00:54:16 435.175 FM
Sapphire 03 Sep 00:48:36 00:53:54 50° 120° (ESE) 00:59:07 437.095 MHz 1200 baud AX-25 AFSK
JAS-1B 03 Sep 01:02:43 01:10:00 25° 86° (E) 01:17:36 435.800 - 435.900 CW/SSB
PCSat 03 Sep 01:17:36 01:23:04 84° 295° (WNW) 01:28:28 145.825 MHz
Oscar 19 03 Sep 01:18:40 01:23:39 45° 81° (E) 01:28:34 437.125 CW, 437.150 USB
AO-Echo 03 Sep 01:19:35 01:23:47 23° 86° (E) 01:27:54 ?
SO-50 03 Sep 01:20:11 01:24:19 29° 68° (ENE) 01:28:27 436.795 FM
Gurwin Techsat 1B 03 Sep 01:39:03 01:41:14 12° 89° (E) 01:43:24 435.225 FM
Oscar 16 03 Sep 01:54:02 01:59:14 76° 255° (WSW) 02:04:22 437.025 USB, Beacon 2401.1428
ITAMSAT 1 03 Sep 01:58:46 02:03:51 47° 80° (E) 02:08:52 435.822 SSB
Uribyol 2 03 Sep 02:07:45 02:12:59 63° 79° (ENE) 02:18:06 436.500 FM
TMSAT-1 03 Sep 02:26:18 02:30:53 28° 84° (E) 02:35:23 436.925 FM
AO-27 03 Sep 02:28:35 02:33:54 85° 256° (WSW) 02:39:08 436.795 MHz FM
Sapphire 03 Sep 02:33:12 02:36:52 19° 285° (WNW) 02:40:30 437.095 MHz 1200 baud AX-25 AFSK
OPAL 03 Sep 02:50:23 02:54:15 22° 115° (ESE) 02:58:06 ?
JAS-1B 03 Sep 02:51:46 03:00:46 73° 253° (WSW) 03:10:36 435.800 - 435.900 CW/SSB
AO-Echo 03 Sep 02:57:39 03:02:36 38° 251° (WSW) 03:07:26 ?
Oscar 19 03 Sep 02:59:03 03:02:36 19° 246° (WSW) 03:06:07 437.125 CW, 437.150 USB
SO-50 03 Sep 03:00:34 03:04:48 30° 233° (SW) 03:09:01 436.795 FM
UOSAT-12 03 Sep 03:01:20 03:04:44 21° 69° (ENE) 03:08:07 437.025 FM, 437.400 FM
Gurwin Techsat 1B 03 Sep 03:16:16 03:21:37 67° 254° (WSW) 03:26:54 435.225 FM
AO-7 03 Sep 03:37:38 03:45:03 33° 82° (E) 03:52:22 29.400 - 29.500 MHz
ITAMSAT 1 03 Sep 03:39:21 03:42:55 19° 245° (WSW) 03:46:28 435.822 SSB
Uribyol 2 03 Sep 03:49:08 03:51:51 14° 243° (WSW) 03:54:32 436.500 FM
Uosat F 03 Sep 03:51:30 03:56:06 33° 82° (E) 04:00:37 435.120 FM
TMSAT-1 03 Sep 04:06:03 04:10:43 31° 249° (WSW) 04:15:20 436.925 FM
OPAL 03 Sep 04:28:06 04:32:51 39° 281° (W) 04:37:36 ?
UOSAT-12 03 Sep 04:40:35 04:44:39 33° 235° (SW) 04:48:41 437.025 FM, 437.400 FM
STRAND 1 03 Sep 04:42:42 04:43:54 11° 119° (ESE) 04:45:07 ?
JAS-2 03 Sep 04:42:52 04:47:51 19° 91° (E) 04:52:31 435.800 - 435.900 CW/SSB, 435.910 FM
JAS-1B 03 Sep 04:45:09 04:49:58 16° 237° (WSW) 04:55:02 435.800 - 435.900 CW/SSB
Saudisat 1A 03 Sep 04:59:02 05:01:08 13° 134° (SE) 05:03:13 436.775 MHz
AO-7 03 Sep 05:29:56 05:37:55 49° 246° (WSW) 05:45:51 29.400 - 29.500 MHz
Uosat F 03 Sep 05:30:35 05:34:40 25° 248° (WSW) 05:38:44 435.120 FM
RS-15 03 Sep 05:41:26 05:52:38 49° 72° (ENE) 06:04:08 29.354 - 29.394 USB, Beacon 29.352 USB
Hamsat 03 Sep 05:50:15 05:54:30 59° 80° (E) 05:58:43 145.90 MHz
STRAND 1 03 Sep 06:17:09 06:22:19 82° 283° (WNW) 06:27:34 ?
JAS-2 03 Sep 06:25:50 06:33:35 74° 254° (WSW) 06:40:33 435.800 - 435.900 CW/SSB, 435.910 FM
Saudisat 1A 03 Sep 06:36:44 06:41:09 67° 297° (WNW) 06:45:31 436.775 MHz
KITSAT 1 03 Sep 06:42:00 06:49:25 37° 128° (SE) 06:56:45 435.175 FM
SO-67 03 Sep 07:21:27 07:25:00 74° 257° (WSW) 07:28:29 435.3500 MHz FM
Hamsat 03 Sep 07:29:16 07:29:54 10° 245° (WSW) 07:30:33 145.90 MHz
RS-15 03 Sep 07:53:33 08:05:05 49° 231° (SW) 08:16:57 29.354 - 29.394 USB, Beacon 29.352 USB
ISS 03 Sep 08:12:03 08:15:26 87° 43° (NE) 08:18:51 145.800 FM
JAS-2 03 Sep 08:13:56 08:17:05 13° 235° (SW) 08:20:09 435.800 - 435.900 CW/SSB, 435.910 FM
KITSAT 1 03 Sep 08:37:14 08:44:54 47° 290° (WNW) 08:52:32 435.175 FM
PANSAT 03 Sep 08:39:54 08:42:09 15° 19° (NNE) 08:44:25 not established
HO-68 03 Sep 08:52:37 08:59:42 55° 78° (ENE) 09:06:41 435.675 MHz FM
UKube-1 03 Sep 09:29:24 09:33:50 68° 78° (ENE) 09:38:12 145.840 MHz, 145.915 MHz
Oscar 11 03 Sep 09:31:40 09:35:52 45° 81° (E) 09:40:02 145.825 FM, Beacon 2401.500 USB
ISS 03 Sep 09:50:48 09:52:35 14° 206° (SSW) 09:54:23 145.800 FM
SO-50 03 Sep 09:56:35 09:58:22 12° 135° (SE) 10:00:09 436.795 FM
FUNcube-1 03 Sep 10:08:09 10:12:14 43° 81° (E) 10:16:12 145.950 - 145.970 MHz USB
RS-15 03 Sep 10:14:28 10:21:49 17° 201° (SSW) 10:29:11 29.354 - 29.394 USB, Beacon 29.352 USB
PANSAT 03 Sep 10:18:28 10:21:50 28° 7° (N) 10:25:11 not established
HO-68 03 Sep 10:41:11 10:46:55 26° 242° (WSW) 10:52:36 435.675 MHz FM
Oscar 11 03 Sep 11:09:25 11:11:37 14° 246° (WSW) 11:13:49 145.825 FM, Beacon 2401.500 USB
Oscar 16 03 Sep 11:32:08 11:34:06 12° 117° (ESE) 11:36:04 437.025 USB, Beacon 2401.1428
SO-50 03 Sep 11:34:57 11:39:29 76° 298° (WNW) 11:43:55 436.795 FM
FUNcube-1 03 Sep 11:46:09 11:48:11 13° 246° (WSW) 11:50:13 145.950 - 145.970 MHz USB
MaSat-1 03 Sep 11:50:47 11:53:24 63° 247° (WSW) 11:55:52 437.345 MHz
PANSAT 03 Sep 11:58:14 12:01:37 28° 354° (N) 12:04:59 not established
AO-27 03 Sep 12:08:02 12:09:48 12° 118° (ESE) 12:11:34 436.795 MHz FM
AO-Echo 03 Sep 12:29:38 12:33:20 21° 114° (ESE) 12:37:09 ?
Oscar 19 03 Sep 12:32:16 12:37:12 47° 108° (ESE) 12:42:10 437.125 CW, 437.150 USB
RS-15 03 Sep 12:34:59 12:41:51 16° 162° (SSE) 12:48:35 29.354 - 29.394 USB, Beacon 29.352 USB
Gurwin Techsat 1B 03 Sep 12:56:47 12:59:53 16° 116° (ESE) 13:03:00 435.225 FM
Oscar 16 03 Sep 13:07:36 13:12:46 73° 282° (WNW) 13:17:59 437.025 USB, Beacon 2401.1428
UOSAT-12 03 Sep 13:12:35 13:17:02 81° 119° (ESE) 13:21:29 437.025 FM, 437.400 FM
ITAMSAT 1 03 Sep 13:13:24 13:18:28 52° 107° (ESE) 13:23:36 435.822 SSB
Uribyol 2 03 Sep 13:22:11 13:27:24 68° 106° (ESE) 13:32:40 436.500 FM
JAS-1B 03 Sep 13:34:46 13:40:34 74° 106° (ESE) 13:47:14 435.800 - 435.900 CW/SSB
PANSAT 03 Sep 13:38:57 13:41:18 15° 342° (NNW) 13:43:38 not established
AO-27 03 Sep 13:43:19 13:48:33 79° 283° (WNW) 13:53:53 436.795 MHz FM
TMSAT-1 03 Sep 13:43:50 13:48:30 32° 111° (ESE) 13:53:14 436.925 FM
AO-Echo 03 Sep 14:07:05 14:11:45 40° 278° (W) 14:16:38 ?
Oscar 19 03 Sep 14:13:25 14:16:45 17° 273° (W) 14:20:05 437.125 CW, 437.150 USB
